CW0198 Weather Reports


time (UTC)temp
F
wind
direction
speed
knots
gust
knots
rain 1hr
in
rain 24hr
in
rain mn
in
humidity
%
barometer
mb
20260505200051 80 219 4.3 12.2 0.00 0.00 0.00 48 1014.1
20260505194608 81 229 5.2 12.2 0.00 0.00 0.00 48 1014.3
20260505194502 81 226 5.2 12.2 0.00 0.00 0.00 47 1014.4
20260505193023 80 201 3.5 9.6 0.00 0.00 0.00 48 1014.6
20260505191536 81 219 6.1 12.2 0.00 0.00 0.00 47 1014.8
20260505184526 81 221 3.5 8.7 0.00 0.00 0.00 47 1015.2
20260505183047 81 173 4.3 10.4 0.00 0.00 0.00 49 1015.4
20260505181504 80 198 4.3 12.2 0.00 0.00 0.00 50 1015.5
20260505180018 80 153 3.5 7.8 0.00 0.00 0.00 49 1015.7
20260505174534 79 160 4.3 10.4 0.00 0.00 0.00 51 1015.7
20260505173052 79 162 6.1 11.3 0.00 0.00 0.00 51 1015.7
20260505171514 78 195 5.2 11.3 0.00 0.00 0.00 53 1016.0
20260505170036 78 191 4.3 8.7 0.00 0.00 0.00 53 1016.1
20260505164604 78 193 3.5 10.4 0.00 0.00 0.00 55 1016.2
20260505163016 78 204 1.7 8.7 0.00 0.00 0.00 55 1016.3
20260505161534 77 229 3.5 12.2 0.00 0.00 0.00 58 1016.3
20260505160105 77 225 2.6 7.0 0.00 0.00 0.00 62 1016.7
20260505153045 74 221 5.2 7.8 0.00 0.00 0.00 62 1016.9
20260505151608 73 233 2.6 9.6 0.00 0.00 0.00 63 1017.0
20260505124517 64 245 0.9 5.2 0.00 0.00 0.00 78 1016.9
20260505123043 61 198 2.6 6.1 0.00 0.00 0.00 79 1017.0
20260505121503 59 219 1.7 4.3 0.00 0.00 0.00 83 1017.0
20260505120038 57 251 0.9 3.5 0.00 0.00 0.00 84 1016.8
20260505114548 56 167 0.0 1.7 0.00 0.00 0.00 86 1016.7
20260505113017 55 140 0.0 1.7 0.00 0.00 0.00 88 1016.7
20260505111543 53 141 0.0 0.9 0.00 0.00 0.00 89 1016.6
20260505110109 52 173 0.0 0.0 0.00 0.00 0.00 90 1016.4
20260505101516 53 167 0.0 0.0 0.00 0.00 0.00 88 1015.9
20260505100029 53 141 0.0 0.0 0.00 0.00 0.00 87 1015.8
20260505094554 53 195 0.0 0.0 0.00 0.00 0.00 87 1015.7
20260505093009 54 227 0.0 0.0 0.00 0.00 0.00 85 1015.6
20260505091537 55 232 0.0 0.0 0.00 0.00 0.00 84 1015.6
20260505090049 55 214 0.0 1.7 0.00 0.00 0.00 84 1015.4
20260505084508 56 217 0.0 1.7 0.00 0.00 0.00 82 1015.4
20260505083025 56 200 0.0 2.6 0.00 0.00 0.00 82 1015.2
20260505081541 56 162 0.0 3.5 0.00 0.00 0.00 81 1015.1
20260505080106 57 150 0.9 3.5 0.00 0.00 0.00 80 1015.2
20260505080005 57 162 0.9 3.5 0.00 0.00 0.00 80 1015.0
20260505074523 57 210 2.6 4.3 0.00 0.00 0.00 79 1015.1
20260505073052 58 211 1.7 6.1 0.00 0.00 0.00 78 1015.0
20260505071503 58 198 3.5 6.1 0.00 0.00 0.00 77 1015.0
20260505070036 58 212 1.7 4.3 0.00 0.00 0.00 77 1014.9
20260505064541 59 210 1.7 6.1 0.00 0.00 0.00 76 1015.0
20260505063009 59 207 2.6 6.1 0.00 0.00 0.00 75 1014.9
20260505061532 59 221 1.7 7.0 0.00 0.00 0.00 74 1015.0
20260505060053 60 184 3.5 6.1 0.00 0.00 0.00 74 1015.1
20260505054502 60 188 1.7 7.0 0.00 0.00 0.00 73 1015.4
20260505053023 61 221 2.6 5.2 0.00 0.00 0.00 72 1015.4
20260505051537 61 218 2.6 6.1 0.00 0.00 0.00 72 1015.5
20260505041531 62 186 2.6 8.7 0.00 0.00 0.00 70 1015.5
20260505040049 63 162 2.6 9.6 0.00 0.00 0.00 70 1015.3
20260505034559 63 226 2.6 7.0 0.00 0.00 0.00 69 1015.3
20260505034513 63 211 2.6 7.0 0.00 0.00 0.00 70 1015.4
20260505033025 63 210 2.6 7.0 0.00 0.00 0.00 69 1015.3
20260505031605 63 200 3.5 7.0 0.00 0.00 0.00 68 1015.3
20260505030013 64 221 2.6 7.0 0.00 0.00 0.00 68 1015.3
20260505024554 64 205 2.6 7.8 0.00 0.00 0.00 67 1015.2
20260505023056 65 223 3.5 7.0 0.00 0.00 0.00 67 1015.0
20260505021535 66 210 3.5 11.3 0.00 0.00 0.00 66 1015.0
20260505020049 66 203 4.3 11.3 0.00 0.00 0.00 66 1014.8
20260505014532 67 191 4.3 9.6 0.00 0.00 0.00 65 1014.7
20260505013049 67 186 4.3 9.6 0.00 0.00 0.00 64 1014.5
20260505011515 68 211 2.6 6.1 0.00 0.00 0.00 58 1014.3
20260505010036 68 165 1.7 7.0 0.00 0.00 0.00 54 1013.9
20260505004511 69 221 1.7 4.3 0.00 0.00 0.00 51 1013.5
20260505003046 70 202 0.9 3.5 0.00 0.00 0.00 50 1013.3
20260505001600 71 214 1.7 5.2 0.00 0.00 0.00 48 1013.4
20260505000030 72 182 1.7 4.3 0.00 0.00 0.00 46 1013.3
20260504234550 74 229 1.7 5.2 0.00 0.00 0.00 44 1013.1
20260504233012 75 209 1.7 7.8 0.00 0.00 0.00 42 1012.8
20260504231538 76 213 2.6 6.1 0.00 0.00 0.00 41 1012.8
20260504230050 77 207 3.5 6.1 0.00 0.00 0.00 40 1012.8
20260504224509 78 218 4.3 9.6 0.00 0.00 0.00 39 1012.9
20260504223051 78 198 3.5 10.4 0.00 0.00 0.00 38 1012.9
20260504221556 79 149 4.3 8.7 0.00 0.00 0.00 37 1012.8
20260504220024 79 300 6.1 9.6 0.00 0.00 0.00 36 1012.8
20260504214547 80 321 3.5 11.3 0.00 0.00 0.00 37 1012.9
20260504213022 80 212 5.2 9.6 0.00 0.00 0.00 36 1012.9
20260504211538 80 176 2.6 11.3 0.00 0.00 0.00 38 1012.9
20260504210058 79 225 6.1 11.3 0.00 0.00 0.00 35 1013.0
20260504204533 79 214 3.5 9.6 0.00 0.00 0.00 37 1012.9
20260504203042 80 214 3.5 8.7 0.00 0.00 0.00 35 1013.3
20260504201600 80 167 3.5 11.3 0.00 0.00 0.00 38 1013.3